Regional Weather Roundup
Issued by NWS Newport/Morehead, NC

Current Version | Previous Version | Graphics & Text | Print | Product List | Glossary Off
Versions: 1 2 3 4 5 6 7 8 9 10 11 12 13 14 15 16 17 18 19 20 21 22 23 24 25 26 27 28 29 30 31 32 33 34 35 36 37 38 39 40 41 42 43 44 45 46 47 48 49 50

000
ASUS42 KMHX 231422
RWRMHX
WEATHER ROUNDUP FOR EASTERN NORTH CAROLINA
NATIONAL WEATHER SERVICE NEWPORT/MOREHEAD CITY NC
1000 AM EDT THU OCT 23 2014

NOTE: "FAIR" INDICATES FEW OR NO CLOUDS BELOW 12,000 FEET
WITH NO SIGNIFICANT WEATHER AND/OR OBSTRUCTIONS TO VISIBILITY

NCZ015>017-031-032-045>047-102-103-231500-
NORTH COAST

CITY           SKY/WX    TMP DP  RH WIND       PRES   REMARKS
EDENTON        NOT AVBL
ELIZABETH CITY NOT AVBL
KITTY HAWK     NOT AVBL
MANTEO         NOT AVBL

$$

NCZ045>047-081-094-103-104-231500-
CENTRAL COAST

CITY           SKY/WX    TMP DP  RH WIND       PRES   REMARKS
FRISCO         NOT AVBL
SWANQUARTER    NOT AVBL

$$

NCZ095-097-098-100-101-231500-
SOUTHERN COAST

CITY           SKY/WX    TMP DP  RH WIND       PRES   REMARKS
BEAUFORT       NOT AVBL
CEDAR ISLAND   NOT AVBL
JACKSONVILLE   NOT AVBL
PINEY ISLAND   NOT AVBL
WILMINGTON     NOT AVBL


$$

NCZ011>013-027>030-043-044-078>080-089-090>093-098-231500-
COASTAL PLAIN

CITY           SKY/WX    TMP DP  RH WIND       PRES   REMARKS
AHOSKIE        NOT AVBL
CLINTON        NOT AVBL
ELIZABETHTOWN  NOT AVBL
GOLDSBORO      NOT AVBL
GREENVILLE     NOT AVBL
HAVELOCK       NOT AVBL
KENANSVILLE    NOT AVBL
KINSTON        NOT AVBL
NEW BERN       NOT AVBL
RICHLANDS      NOT AVBL
ROCKY MOUNT    NOT AVBL
WASHINGTON     NOT AVBL
WHITEVILLE     NOT AVBL

$$

AMZ130-135-150-152-154-156-158-170-250-252-270-ANZ085-086-088-633-658-670-231500-
MARINE OBSERVATIONS

STATION/POSITION TIME  TEMP    WIND        PRES    WAVE   SWELL
                       AIR SEA DIR/SP/G            HT/PER HT/PER
                 (UTC) (F)     (DEG/KT/KT) (MB)    (FT/S) (FT/S)
CHESAPEAKE LIGHT NOT AVBL
64 E VA BEACH    NOT AVBL
DUCK             NOT AVBL
2 E DUCK         NOT AVBL
10 NE DUCK       NOT AVBL
OREGON INLET     NOT AVBL
13E OREGON INLT  NOT AVBL
HATTERAS CG      NOT AVBL
DIAMOND BUOY     NOT AVBL
17 S OCRACOKE    NOT AVBL
CAPE LOOKOUT     NOT AVBL
BEAUFORT LAB     NOT AVBL
30 SE NEW RIVER  NOT AVBL
5 SE WRIGHTSVLE  NOT AVBL
225 S CAPE HAT   NOT AVBL
41 SE CHARLESTON NOT AVBL

$$



USA.gov is the U.S. government's official web portal to all federal, state and local government web resources and services.